Imperial, CA

6:33 AM PST on December 11, 2016 (GMT -0800)
Imperial County

Weather History for KIPL - January, 2013

Change the Weather History Date:

Thursday, January 17, 2013

  Actual Average Record
Temperature  
Mean Temperature 54 °F -  
Max Temperature 71 °F 71 °F 87 °F (2011)
Min Temperature 37 °F 45 °F 28 °F (2007)
Degree Days  
Heating Degree Days 11    
Growing Degree Days 4 (Base 50)    
Moisture  
Dew Point 22 °F    
Average Humidity 33    
Maximum Humidity 51    
Minimum Humidity 14    
Precipitation  
Precipitation 0.00 in - - ()
Sea Level Pressure  
Sea Level Pressure 30.21 in    
Wind  
Wind Speed 5 mph (WNW)    
Max Wind Speed 9 mph    
Max Gust Speed -    
Visibility 10 miles    
Events      
Averages and records for this station are not official NWS values.
T = Trace of Precipitation, MM = Missing Value Source: NWS Daily Summary

Daily Weather History Graph

Daily Weather History Graph

Search for Another Location

Airport or City:

Trip Planner

Search our weather history database for the weather conditions in past years. The results will help you decide how hot, cold, wet, or windy it might be!

Date:

Astronomy

Jan. 17, 2013 Rise Set
Actual Time 6:44 AM PST 5:01 PM PST
Civil Twilight 6:17 AM PST 5:27 PM PST
Nautical Twilight 5:47 AM PST 5:57 PM PST
Astronomical Twilight 5:18 AM PST 6:27 PM PST
Moon 10:17 AM PST (1/17) 11:30 PM PST (1/17)
Length of Visible Light 11h 09m
Length of Day
10h 16m
Waxing Crescent, 39% of the Moon is Illuminated
Jan 17
Waxing Crescent
Jan 18
First Quarter
Jan 26
Full
Feb 3
Last Quarter
Feb 9
New

Hourly Weather History & Observations

Time (PST) Temp. Windchill Dew Point Humidity Pressure Visibility Wind Dir Wind Speed Gust Speed Precip Events Conditions
12:53 AM 39.2 °F 35.9 °F 19.4 °F 45% 30.24 in 10.0 mi West 4.6 mph - N/A   Clear
1:53 AM 41.0 °F 36.4 °F 21.0 °F 45% 30.24 in 10.0 mi West 6.9 mph - N/A   Clear
2:53 AM 39.9 °F 35.8 °F 21.0 °F 47% 30.24 in 10.0 mi West 5.8 mph - N/A   Clear
3:53 AM 39.9 °F 36.7 °F 19.9 °F 45% 30.23 in 10.0 mi WSW 4.6 mph - N/A   Clear
4:53 AM 39.0 °F 35.7 °F 21.0 °F 49% 30.23 in 10.0 mi West 4.6 mph - N/A   Clear
5:53 AM 37.9 °F 32.7 °F 21.0 °F 51% 30.23 in 10.0 mi West 6.9 mph - N/A   Clear
6:53 AM 37.9 °F 33.5 °F 21.0 °F 51% 30.25 in 10.0 mi West 5.8 mph - N/A   Clear
7:53 AM 44.1 °F 40.8 °F 24.1 °F 45% 30.27 in 10.0 mi WSW 5.8 mph - N/A   Clear
8:53 AM 52.0 °F - 26.1 °F 37% 30.30 in 10.0 mi Calm Calm - N/A   Clear
9:53 AM 60.1 °F - 27.0 °F 28% 30.30 in 10.0 mi Calm Calm - N/A   Clear
10:53 AM 64.9 °F - 21.9 °F 19% 30.26 in 10.0 mi North 5.8 mph - N/A   Clear
11:53 AM 66.9 °F - 21.9 °F 18% 30.22 in 10.0 mi NW 3.5 mph - N/A   Clear
12:53 PM 69.1 °F - 19.9 °F 15% 30.18 in 10.0 mi NNW 8.1 mph - N/A   Clear
1:53 PM 71.1 °F - 19.0 °F 14% 30.17 in 10.0 mi North 6.9 mph - N/A   Clear
2:53 PM 71.1 °F - 19.0 °F 14% 30.16 in 10.0 mi NNE 4.6 mph - N/A   Clear
3:53 PM 70.0 °F - 19.9 °F 15% 30.16 in 10.0 mi Calm Calm - N/A   Clear
4:53 PM 64.9 °F - 25.0 °F 22% 30.17 in 10.0 mi WNW 3.5 mph - N/A   Clear
5:53 PM 60.1 °F - 21.9 °F 23% 30.18 in 10.0 mi Calm Calm - N/A   Clear
6:53 PM 57.0 °F - 21.9 °F 26% 30.19 in 10.0 mi Calm Calm - N/A   Clear
7:53 PM 52.0 °F - 25.0 °F 35% 30.19 in 10.0 mi West 5.8 mph - N/A   Clear
8:53 PM 48.9 °F - 23.0 °F 36% 30.19 in 10.0 mi West 6.9 mph - N/A   Clear
9:53 PM 48.0 °F - 21.9 °F 36% 30.18 in 10.0 mi West 9.2 mph - N/A   Clear
10:53 PM 46.9 °F - 19.9 °F 34% 30.18 in 10.0 mi West 6.9 mph - N/A   Clear
11:53 PM 43.0 °F 39.5 °F 21.0 °F 42% 30.18 in 10.0 mi WNW 5.8 mph - N/A   Clear